• In Romania
  • List of Countries
  • For 7 days
  • Water Temperature
  • Satellite Maps
  • Weather Map
  • Weather Widgets
  • user-avatar
    Login

    Hourly Weather Malanje

    Today, 30 April, Sunday

    Time Temperature Precipitation Wind Pressure Humidity
    00:00 +19°C° 0 mm 2 mps 666 mmHg 77%
    01:00 +19°C° 0 mm 2 mps 666 mmHg 75%
    02:00 +18°C° 0 mm 2 mps 666 mmHg 77%
    03:00 +18°C° 0 mm 2 mps 666 mmHg 78%
    04:00 +17°C° 0 mm 3 mps 666 mmHg 79%
    05:00 +18°C° 0 mm 3 mps 666 mmHg 79%
    06:00 +18°C° 0 mm 3 mps 666 mmHg 80%
    07:00 +18°C° 0 mm 3 mps 666 mmHg 81%
    08:00 +20°C° 0 mm 4 mps 667 mmHg 72%
    09:00 +23°C° 0 mm 5 mps 668 mmHg 63%
    10:00 +26°C° 0 mm 5 mps 668 mmHg 54%
    11:00 +27°C° 0 mm 5 mps 668 mmHg 51%
    12:00 +28°C° 0 mm 4 mps 667 mmHg 49%
    13:00 +29°C° 0 mm 4 mps 667 mmHg 46%
    14:00 +28°C° 0 mm 3 mps 666 mmHg 49%
    15:00 +28°C° 0 mm 3 mps 666 mmHg 51%
    16:00 +28°C° 0 mm 2 mps 665 mmHg 54%
    17:00 +26°C° 0 mm 2 mps 665 mmHg 60%
    18:00 +23°C° 0 mm 2 mps 665 mmHg 66%
    19:00 +20°C° 0 mm 2 mps 665 mmHg 72%
    20:00 +19°C° 0 mm 2 mps 665 mmHg 72%
    21:00 +20°C° 0 mm 1 mps 665 mmHg 73%
    22:00 +20°C° 0 mm 1 mps 666 mmHg 73%
    23:00 +19°C° 0 mm 1 mps 666 mmHg 73%

    Tomorrow, 1 May, Monday

    Time Temperature Precipitation Wind Pressure Humidity
    00:00 +19°C° 0 mm 1 mps 666 mmHg 74%
    01:00 +19°C° 0 mm 1 mps 665 mmHg 74%
    02:00 +19°C° 0 mm 1 mps 665 mmHg 76%
    03:00 +18°C° 0 mm 2 mps 665 mmHg 78%
    04:00 +17°C° 0 mm 2 mps 665 mmHg 80%
    05:00 +18°C° 0 mm 2 mps 665 mmHg 80%
    06:00 +18°C° 0 mm 2 mps 666 mmHg 80%
    07:00 +19°C° 0 mm 2 mps 666 mmHg 80%
    08:00 +21°C° 0 mm 3 mps 667 mmHg 71%
    09:00 +23°C° 0 mm 4 mps 667 mmHg 63%
    10:00 +26°C° 0 mm 5 mps 668 mmHg 54%
    11:00 +27°C° 0 mm 4 mps 668 mmHg 52%
    12:00 +28°C° 0 mm 4 mps 667 mmHg 49%
    13:00 +29°C° 0 mm 4 mps 667 mmHg 46%
    14:00 +28°C° 0 mm 3 mps 666 mmHg 48%
    15:00 +28°C° 0 mm 3 mps 666 mmHg 50%
    16:00 +28°C° 0 mm 2 mps 665 mmHg 52%
    17:00 +25°C° 0 mm 2 mps 665 mmHg 60%
    18:00 +21°C° 0 mm 2 mps 665 mmHg 68%
    19:00 +20°C° 0 mm 1 mps 664 mmHg 76%
    20:00 +19°C° 0 mm 1 mps 664 mmHg 76%
    21:00 +19°C° 0 mm 1 mps 665 mmHg 77%
    22:00 +18°C° 0 mm 1 mps 665 mmHg 77%
    23:00 +18°C° 0 mm 1 mps 665 mmHg 78%

    Day after tomorrow, 2 May, Tuesday

    Time Temperature Precipitation Wind Pressure Humidity
    00:00 +16°C° 0 mm 1 mps 664 mmHg 79%
    01:00 +16°C° 0 mm 1 mps 664 mmHg 79%
    02:00 +16°C° 0 mm 1 mps 664 mmHg 77%
    03:00 +16°C° 0 mm 2 mps 664 mmHg 75%
    04:00 +16°C° 0 mm 2 mps 664 mmHg 73%
    05:00 +17°C° 0 mm 2 mps 664 mmHg 74%
    06:00 +17°C° 0 mm 2 mps 665 mmHg 75%
    07:00 +17°C° 0 mm 2 mps 666 mmHg 76%
    08:00 +20°C° 0 mm 3 mps 666 mmHg 69%
    09:00 +22°C° 0 mm 4 mps 667 mmHg 62%
    10:00 +26°C° 0 mm 5 mps 668 mmHg 55%
    11:00 +26°C° 0 mm 5 mps 667 mmHg 52%
    12:00 +27°C° 0 mm 4 mps 667 mmHg 50%
    13:00 +28°C° 0 mm 4 mps 666 mmHg 48%
    14:00 +28°C° 0 mm 4 mps 666 mmHg 50%
    15:00 +28°C° 0 mm 3 mps 665 mmHg 51%
    16:00 +28°C° 0 mm 2 mps 665 mmHg 53%
    17:00 +25°C° 0 mm 2 mps 665 mmHg 60%
    18:00 +23°C° 0 mm 2 mps 664 mmHg 67%
    19:00 +20°C° 0 mm 1 mps 664 mmHg 75%
    20:00 +20°C° 0 mm 1 mps 664 mmHg 75%
    21:00 +19°C° 0 mm 1 mps 665 mmHg 76%
    22:00 +19°C° 0 mm 1 mps 665 mmHg 77%
    23:00 +18°C° 0 mm 1 mps 665 mmHg 77%

    3 May, Wednesday

    Time Temperature Precipitation Wind Pressure Humidity
    00:00 +18°C° 0 mm 1 mps 664 mmHg 78%
    01:00 +18°C° 0 mm 1 mps 664 mmHg 79%
    02:00 +18°C° 0 mm 1 mps 664 mmHg 78%
    03:00 +18°C° 0 mm 1 mps 664 mmHg 77%
    04:00 +17°C° 0 mm 2 mps 664 mmHg 77%
    05:00 +17°C° 0 mm 2 mps 665 mmHg 76%
    06:00 +17°C° 0 mm 2 mps 665 mmHg 75%
    07:00 +18°C° 0 mm 3 mps 666 mmHg 74%
    08:00 +20°C° 0 mm 4 mps 666 mmHg 68%
    09:00 +22°C° 0 mm 4 mps 667 mmHg 61%
    10:00 +25°C° 0 mm 5 mps 667 mmHg 54%
    11:00 +27°C° 0 mm 4 mps 667 mmHg 52%
    12:00 +28°C° 0 mm 4 mps 666 mmHg 49%
    13:00 +29°C° 0 mm 4 mps 666 mmHg 47%
    14:00 +29°C° 0 mm 3 mps 665 mmHg 48%
    15:00 +29°C° 0 mm 3 mps 665 mmHg 49%
    16:00 +28°C° 0 mm 2 mps 665 mmHg 51%
    17:00 +26°C° 0 mm 2 mps 664 mmHg 59%
    18:00 +23°C° 0 mm 1 mps 664 mmHg 66%
    19:00 +20°C° 0 mm 1 mps 664 mmHg 74%
    20:00 +19°C° 0 mm 1 mps 664 mmHg 74%
    21:00 +19°C° 0 mm 1 mps 664 mmHg 74%
    22:00 +19°C° 0 mm 1 mps 665 mmHg 74%
    23:00 +18°C° 0 mm 1 mps 664 mmHg 75%

    4 May, Thursday

    Time Temperature Precipitation Wind Pressure Humidity
    00:00 +18°C° 0 mm 1 mps 664 mmHg 77%
    01:00 +18°C° 0 mm 1 mps 664 mmHg 78%
    02:00 +18°C° 0 mm 1 mps 664 mmHg 76%
    03:00 +17°C° 0 mm 2 mps 664 mmHg 74%
    04:00 +16°C° 0 mm 2 mps 664 mmHg 72%
    05:00 +17°C° 0 mm 2 mps 664 mmHg 72%
    06:00 +17°C° 0 mm 2 mps 665 mmHg 73%
    07:00 +17°C° 0 mm 3 mps 665 mmHg 73%
    08:00 +20°C° 0 mm 3 mps 666 mmHg 66%
    09:00 +22°C° 0 mm 3 mps 667 mmHg 60%
    10:00 +26°C° 0 mm 4 mps 667 mmHg 54%
    11:00 +27°C° 0 mm 4 mps 667 mmHg 50%
    12:00 +28°C° 0 mm 4 mps 666 mmHg 47%
    13:00 +29°C° 0 mm 3 mps 666 mmHg 43%
    14:00 +29°C° 0 mm 3 mps 665 mmHg 45%
    15:00 +29°C° 0 mm 2 mps 665 mmHg 47%
    16:00 +29°C° 0 mm 2 mps 664 mmHg 48%
    17:00 +26°C° 0 mm 1 mps 664 mmHg 56%
    18:00 +22°C° 0 mm 1 mps 664 mmHg 64%
    19:00 +19°C° 0 mm 1 mps 663 mmHg 72%
    20:00 +19°C° 0 mm 1 mps 664 mmHg 72%
    21:00 +19°C° 0 mm 1 mps 664 mmHg 72%
    22:00 +19°C° 0 mm 1 mps 664 mmHg 72%
    23:00 +18°C° 0 mm 1 mps 664 mmHg 72%

    5 May, Friday

    Time Temperature Precipitation Wind Pressure Humidity
    00:00 +18°C° 0 mm 1 mps 664 mmHg 72%
    01:00 +18°C° 0 mm 1 mps 664 mmHg 72%
    02:00 +17°C° 0 mm 2 mps 664 mmHg 71%
    03:00 +16°C° 0 mm 2 mps 664 mmHg 70%
    04:00 +16°C° 0 mm 2 mps 664 mmHg 69%
    05:00 +16°C° 0 mm 3 mps 664 mmHg 70%
    06:00 +17°C° 0 mm 3 mps 665 mmHg 71%
    07:00 +17°C° 0 mm 3 mps 665 mmHg 72%
    08:00 +20°C° 0 mm 3 mps 666 mmHg 65%
    09:00 +22°C° 0 mm 4 mps 666 mmHg 58%
    10:00 +26°C° 0 mm 5 mps 667 mmHg 51%
    11:00 +27°C° 0 mm 5 mps 666 mmHg 49%
    12:00 +28°C° 0 mm 4 mps 666 mmHg 46%
    13:00 +29°C° 0 mm 4 mps 665 mmHg 43%
    14:00 +29°C° 0 mm 3 mps 665 mmHg 45%
    15:00 +29°C° 0 mm 3 mps 665 mmHg 47%
    16:00 +29°C° 0 mm 2 mps 665 mmHg 49%
    17:00 +26°C° 0 mm 2 mps 664 mmHg 54%
    18:00 +24°C° 0 mm 2 mps 664 mmHg 59%
    19:00 +20°C° 0 mm 2 mps 664 mmHg 65%
    20:00 +19°C° 0 mm 2 mps 664 mmHg 65%
    21:00 +19°C° 0 mm 2 mps 665 mmHg 65%
    22:00 +18°C° 0 mm 2 mps 665 mmHg 66%
    23:00 +18°C° 0 mm 2 mps 665 mmHg 66%
    Show more